OK2SZ-6 Weather Reports


time (UTC)temp
C
wind
direction
speed
KPH
gust
KPH
rain 1hr
cm
rain 24hr
cm
rain mn
cm
humidity
%
barometer
mb
20260505080504 18 227 3.2 11.3 0.00 0.00 0.00 48 1007.9
20260505080025 18 224 3.2 11.3 0.00 0.00 0.00 48 1008.2
20260505075504 18 227 3.2 11.3 0.00 0.00 0.00 48 1007.9
20260505075004 18 224 3.2 11.3 0.00 0.00 0.00 48 1007.9
20260505074504 18 193 3.2 11.3 0.00 0.00 0.00 48 1007.9
20260505074004 18 128 1.6 6.4 0.00 0.00 0.00 48 1007.9
20260505073504 18 160 1.6 6.4 0.00 0.00 0.00 47 1008.0
20260505073004 17 176 1.6 6.4 0.00 0.00 0.00 49 1008.3
20260505072504 17 213 1.6 6.4 0.00 0.00 0.00 50 1008.3
20260505072025 16 230 1.6 6.4 0.00 0.00 0.00 51 1008.2
20260505071504 15 172 1.6 4.8 0.00 0.00 0.00 54 1008.0
20260505071004 15 136 1.6 6.4 0.00 0.00 0.00 55 1008.5
20260505070504 16 202 1.6 6.4 0.00 0.00 0.00 55 1008.4
20260505070004 16 223 3.2 6.4 0.00 0.00 0.00 54 1008.3
20260505065504 16 225 3.2 9.7 0.00 0.00 0.00 53 1008.5
20260505065004 15 223 3.2 9.7 0.00 0.00 0.00 53 1008.3
20260505064525 15 225 4.8 12.9 0.00 0.00 0.00 52 1008.5
20260505064004 15 226 4.8 12.9 0.00 0.00 0.00 52 1008.6
20260505063504 15 219 3.2 9.7 0.00 0.00 0.00 52 1008.5
20260505063004 16 201 3.2 9.7 0.00 0.00 0.00 52 1008.4
20260505062504 16 194 1.6 9.7 0.00 0.00 0.00 50 1008.4
20260505062025 17 186 1.6 9.7 0.00 0.00 0.00 48 1008.3
20260505061504 17 135 1.6 6.4 0.00 0.00 0.00 48 1008.4
20260505061004 17 31 1.6 6.4 0.00 0.00 0.00 51 1008.5
20260505060504 17 24 0.0 4.8 0.00 0.00 0.00 52 1008.4
20260505060004 16 19 0.0 3.2 0.00 0.00 0.00 53 1008.3
20260505055504 16 19 0.0 3.2 0.00 0.00 0.00 55 1008.4
20260505055004 15 21 0.0 1.6 0.00 0.00 0.00 63 1008.3
20260505054504 14 22 0.0 1.6 0.00 0.00 0.00 65 1008.3
20260505054004 13 21 0.0 1.6 0.00 0.00 0.00 67 1008.6
20260505053504 13 21 0.0 1.6 0.00 0.00 0.00 69 1008.3
20260505053004 12 22 0.0 1.6 0.00 0.00 0.00 72 1008.3
20260505052504 11 22 0.0 3.2 0.00 0.00 0.00 74 1008.3
20260505052004 10 22 0.0 3.2 0.00 0.00 0.00 76 1008.3
20260505051504 10 17 0.0 3.2 0.00 0.00 0.00 75 1008.4
20260505051004 10 10 0.0 3.2 0.00 0.00 0.00 76 1008.4
20260505050504 8 8 0.0 1.6 0.00 0.00 0.00 83 1008.2
20260505041525 7 0 0.0 0.0 0.00 0.00 0.00 84 1008.4
20260505041004 7 9 0.0 1.6 0.00 0.00 0.00 83 1008.6
20260505040504 7 9 0.0 1.6 0.00 0.00 0.00 83 1008.6
20260505040025 7 9 0.0 1.6 0.00 0.00 0.00 84 1008.4
20260505035504 7 9 0.0 1.6 0.00 0.00 0.00 84 1008.7
20260505035025 7 9 0.0 1.6 0.00 0.00 0.00 84 1008.5
20260505034504 7 9 0.0 1.6 0.00 0.00 0.00 83 1008.6
20260505034004 7 9 0.0 1.6 0.00 0.00 0.00 83 1008.7
20260505033504 7 0 0.0 0.0 0.00 0.00 0.00 83 1008.7
20260505033004 7 0 0.0 0.0 0.00 0.00 0.00 84 1008.7
20260505032504 7 10 0.0 1.6 0.00 0.00 0.00 83 1008.9
20260505032025 7 11 0.0 1.6 0.00 0.00 0.00 83 1008.8
20260505031504 7 12 0.0 1.6 0.00 0.00 0.00 84 1008.6
20260505031004 7 12 0.0 1.6 0.00 0.00 0.00 84 1008.9
20260505030504 7 12 0.0 1.6 0.00 0.00 0.00 84 1008.9
20260505030004 8 12 0.0 1.6 0.00 0.00 0.00 83 1008.7
20260505025504 7 12 0.0 1.6 0.00 0.00 0.00 83 1008.9
20260505025004 7 13 0.0 1.6 0.00 0.00 0.00 84 1008.9
20260505024504 7 0 0.0 0.0 0.00 0.00 0.00 84 1008.8
20260505024004 7 0 0.0 0.0 0.00 0.00 0.00 84 1008.9
20260505023525 7 0 0.0 0.0 0.00 0.00 0.00 83 1009.0
20260505023004 8 13 0.0 1.6 0.00 0.00 0.00 83 1008.9
20260505022504 8 13 0.0 1.6 0.00 0.00 0.00 83 1009.0
20260505022004 8 16 0.0 3.2 0.00 0.00 0.00 82 1009.1
20260505021525 8 16 0.0 3.2 0.00 0.00 0.00 81 1008.8
20260505021025 8 349 0.0 1.6 0.00 0.00 0.00 81 1009.1
20260505020504 8 352 0.0 1.6 0.00 0.00 0.00 81 1009.0
20260505020004 8 352 0.0 1.6 0.00 0.00 0.00 81 1009.1
20260505015504 8 343 0.0 1.6 0.00 0.00 0.00 80 1009.2
20260505015025 8 334 0.0 1.6 0.00 0.00 0.00 80 1009.1
20260505014504 8 334 0.0 1.6 0.00 0.00 0.00 80 1009.4
20260505014025 8 334 0.0 1.6 0.00 0.00 0.00 80 1009.2
20260505013504 8 335 0.0 1.6 0.00 0.00 0.00 80 1009.4
20260505013025 8 335 0.0 1.6 0.00 0.00 0.00 80 1009.4
20260505012504 8 338 0.0 1.6 0.00 0.00 0.00 80 1009.1
20260505012004 8 339 0.0 1.6 0.00 0.00 0.00 80 1009.6
20260505011525 8 336 0.0 1.6 0.00 0.00 0.00 80 1009.4
20260505011004 8 335 0.0 1.6 0.00 0.00 0.00 80 1009.2
20260505010525 8 0 0.0 0.0 0.00 0.00 0.00 81 1009.4
20260505010025 8 0 0.0 0.0 0.00 0.00 0.00 81 1009.3
20260505005525 8 335 0.0 1.6 0.00 0.00 0.00 80 1009.7
20260505005004 8 335 0.0 1.6 0.00 0.00 0.00 80 1009.5
20260505004504 8 335 0.0 1.6 0.00 0.00 0.00 79 1009.3
20260505004004 8 335 0.0 1.6 0.00 0.00 0.00 79 1009.6
20260505003504 9 335 0.0 1.6 0.00 0.00 0.00 79 1009.7
20260505003004 9 335 0.0 1.6 0.00 0.00 0.00 77 1009.8
20260505002504 9 335 0.0 1.6 0.00 0.00 0.00 78 1009.8
20260505002004 9 335 0.0 1.6 0.00 0.00 0.00 77 1009.8
20260505001525 9 335 0.0 1.6 0.00 0.00 0.00 77 1009.9
20260505001004 9 338 0.0 3.2 0.00 0.00 0.00 78 1009.9
20260505000504 9 339 0.0 3.2 0.00 0.00 0.00 78 1009.9
20260505000004 10 340 0.0 1.6 0.00 0.00 0.00 78 1010.2
20260504235504 10 340 0.0 1.6 0.00 0.00 0.00 75 1010.2
20260504235004 10 340 0.0 1.6 0.00 0.00 0.00 77 1010.2
20260504234525 10 340 0.0 1.6 0.00 0.00 0.00 76 1010.2
20260504234004 10 338 0.0 1.6 0.00 0.00 0.00 75 1010.2
20260504233504 10 338 0.0 1.6 0.00 0.00 0.00 76 1010.3
20260504233004 10 0 0.0 0.0 0.00 0.00 0.00 75 1010.2
20260504232504 10 0 0.0 0.0 0.00 0.00 0.00 74 1010.3
20260504232004 10 339 0.0 1.6 0.00 0.00 0.00 74 1010.5
20260504231504 10 339 0.0 1.6 0.00 0.00 0.00 74 1010.3
20260504231025 10 340 0.0 1.6 0.00 0.00 0.00 76 1010.4
20260504230504 10 340 0.0 1.6 0.00 0.00 0.00 76 1010.3
20260504230004 10 348 0.0 1.6 0.00 0.00 0.00 76 1010.4
20260504225504 10 348 0.0 1.6 0.00 0.00 0.00 74 1010.5
20260504225025 10 348 0.0 1.6 0.00 0.00 0.00 74 1010.8
20260504224504 10 349 0.0 1.6 0.00 0.00 0.00 75 1010.9
20260504224004 10 350 0.0 1.6 0.00 0.00 0.00 73 1010.8
20260504223525 10 0 0.0 0.0 0.00 0.00 0.00 74 1010.6
20260504223004 11 14 0.0 3.2 0.00 0.00 0.00 74 1010.9
20260504222525 11 359 0.0 3.2 0.00 0.00 0.00 72 1010.9
20260504222004 11 351 0.0 3.2 0.00 0.00 0.00 72 1010.9
20260504221504 11 356 0.0 3.2 0.00 0.00 0.00 70 1010.8
20260504221004 11 353 0.0 3.2 0.00 0.00 0.00 71 1010.9
20260504220504 11 359 0.0 1.6 0.00 0.00 0.00 72 1011.1
20260504220004 11 357 0.0 3.2 0.00 0.00 0.00 73 1010.9
20260504215504 11 343 0.0 3.2 0.00 0.00 0.00 71 1011.1
20260504215025 11 0 0.0 0.0 0.00 0.00 0.00 72 1011.0
20260504214504 11 357 0.0 1.6 0.00 0.00 0.00 73 1011.1
20260504214004 11 354 0.0 3.2 0.00 0.00 0.00 72 1011.1
20260504213525 11 348 0.0 3.2 0.00 0.00 0.00 73 1011.2
20260504213004 11 350 0.0 3.2 0.00 0.00 0.00 72 1011.3
20260504212504 11 351 0.0 1.6 0.00 0.00 0.00 71 1011.3
20260504212004 12 354 0.0 1.6 0.00 0.00 0.00 70 1011.4
20260504211504 12 357 0.0 1.6 0.00 0.00 0.00 70 1011.3
20260504211004 12 358 0.0 1.6 0.00 0.00 0.00 70 1011.5
20260504210504 12 0 0.0 0.0 0.00 0.00 0.00 69 1011.4
20260504210025 12 0 0.0 0.0 0.00 0.00 0.00 69 1011.6
20260504205504 12 357 0.0 1.6 0.00 0.00 0.00 69 1011.1
20260504205004 12 357 0.0 1.6 0.00 0.00 0.00 68 1011.4
20260504204504 12 357 0.0 1.6 0.00 0.00 0.00 68 1011.3
20260504204004 13 357 0.0 1.6 0.00 0.00 0.00 67 1011.5
20260504203504 13 357 0.0 1.6 0.00 0.00 0.00 66 1011.7
20260504203004 13 357 0.0 1.6 0.00 0.00 0.00 67 1011.4
20260504202504 13 357 0.0 1.6 0.00 0.00 0.00 66 1011.5
20260504202004 13 0 0.0 0.0 0.00 0.00 0.00 66 1011.6
20260504201504 13 344 0.0 3.2 0.00 0.00 0.00 65 1011.4
20260504201004 14 345 0.0 3.2 0.00 0.00 0.00 64 1011.7
20260504200525 14 346 0.0 3.2 0.00 0.00 0.00 64 1011.3
20260504200004 14 351 0.0 1.6 0.00 0.00 0.00 65 1011.5
20260504195504 14 355 0.0 1.6 0.00 0.00 0.00 62 1011.5
20260504195004 14 6 0.0 1.6 0.00 0.00 0.00 62 1011.5
20260504194504 14 9 0.0 1.6 0.00 0.00 0.00 62 1011.4
20260504194004 14 0 0.0 0.0 0.00 0.00 0.00 62 1011.4
20260504193504 14 16 0.0 1.6 0.00 0.00 0.00 63 1011.5
20260504193004 15 13 0.0 1.6 0.00 0.00 0.00 61 1011.5
20260504192504 15 348 0.0 3.2 0.00 0.00 0.00 61 1011.3
20260504192004 15 312 0.0 3.2 0.00 0.00 0.00 61 1011.7
20260504191504 16 284 0.0 1.6 0.00 0.00 0.00 59 1011.6
20260504191004 16 264 0.0 1.6 0.00 0.00 0.00 58 1011.4
20260504190525 16 263 0.0 1.6 0.00 0.00 0.00 57 1011.3
20260504190004 16 0 0.0 0.0 0.00 0.00 0.00 57 1011.0
20260504185504 16 0 0.0 0.0 0.00 0.00 0.00 55 1011.2
20260504185004 16 263 0.0 1.6 0.00 0.00 0.00 54 1011.3
20260504184504 17 263 0.0 1.6 0.00 0.00 0.00 54 1011.4
20260504184004 17 262 0.0 1.6 0.00 0.00 0.00 54 1011.1
20260504183504 18 262 0.0 1.6 0.00 0.00 0.00 53 1011.3
20260504183004 18 262 0.0 1.6 0.00 0.00 0.00 50 1011.1
20260504182504 19 258 0.0 3.2 0.00 0.00 0.00 47 1011.1
20260504182004 20 253 0.0 3.2 0.00 0.00 0.00 46 1011.3
20260504181504 20 249 0.0 3.2 0.00 0.00 0.00 44 1011.0
20260504181004 20 243 1.6 4.8 0.00 0.00 0.00 42 1011.2
20260504180504 20 232 1.6 9.7 0.00 0.00 0.00 41 1011.0
20260504180004 21 229 3.2 9.7 0.00 0.00 0.00 41 1011.1
20260504175504 21 228 3.2 6.4 0.00 0.00 0.00 41 1011.1
20260504175004 21 219 3.2 16.1 0.00 0.00 0.00 40 1010.9
20260504174504 21 211 3.2 16.1 0.00 0.00 0.00 39 1011.1
20260504174025 22 206 3.2 16.1 0.00 0.00 0.00 39 1011.1
20260504173525 22 222 3.2 9.7 0.00 0.00 0.00 39 1011.0
20260504173004 22 219 3.2 9.7 0.00 0.00 0.00 39 1010.9
20260504172504 22 208 3.2 12.9 0.00 0.00 0.00 39 1011.0
20260504172004 22 218 3.2 12.9 0.00 0.00 0.00 39 1010.8
20260504171525 22 232 3.2 9.7 0.00 0.00 0.00 38 1011.1
20260504171025 22 224 3.2 9.7 0.00 0.00 0.00 39 1010.9
20260504170504 22 216 1.6 9.7 0.00 0.00 0.00 39 1010.9
20260504151004 24 226 3.2 11.3 0.00 0.00 0.00 38 1011.3
20260504150504 24 236 4.8 12.9 0.00 0.00 0.00 39 1011.1
20260504141004 26 144 3.2 14.5 0.00 0.00 0.00 37 1011.6
20260504140525 25 130 3.2 16.1 0.00 0.00 0.00 39 1011.7
20260504130525 25 198 4.8 17.7 0.00 0.00 0.00 41 1012.0
20260504110504 22 220 4.8 17.7 0.00 0.00 0.00 44 1013.3
20260504100504 21 205 3.2 9.7 0.00 0.00 0.00 47 1013.9
20260504081504 18 187 3.2 14.5 0.00 0.00 0.00 48 1014.0
20260504081004 20 110 3.2 14.5 0.00 0.00 0.00 47 1013.7